Detroit Lakes, MN

3:52 PM CDT on May 24, 2017 (GMT -0500)
Detroit Lakes

Weather History for KDTL - February, 2014

Change the Weather History Date:

Tuesday, February 25, 2014

  Actual Average Record
Temperature  
Mean Temperature -6 °F -  
Max Temperature -4 °F 29 °F 49 °F (1976)
Min Temperature -9 °F 5 °F -33 °F (1950)
Degree Days  
Heating Degree Days 72    
Moisture  
Dew Point -13 °F    
Average Humidity 76    
Maximum Humidity 84    
Minimum Humidity 65    
Precipitation  
Precipitation 0.00 in - - ()
Sea Level Pressure  
Sea Level Pressure 30.29 in    
Wind  
Wind Speed 12 mph (WNW)    
Max Wind Speed 23 mph    
Max Gust Speed 31 mph    
Visibility 9 miles    
Events Snow    
Averages and records for this station are not official NWS values.
T = Trace of Precipitation, MM = Missing Value Source: NWS Daily Summary

Daily Weather History Graph

Daily Weather History Graph

Search for Another Location

Airport or City:

Trip Planner

Search our weather history database for the weather conditions in past years. The results will help you decide how hot, cold, wet, or windy it might be!

Date:

Astronomy

Feb. 25, 2014 Rise Set
Actual Time 7:10 AM CST 6:03 PM CST
Civil Twilight 6:39 AM CST 6:34 PM CST
Nautical Twilight 6:04 AM CST 7:09 PM CST
Astronomical Twilight 5:29 AM CST 7:44 PM CST
Moon 4:16 AM CST (2/25) 2:00 PM CST (2/25)
Length of Visible Light 11h 54m
Length of Day
10h 52m
Waning Crescent, 18% of the Moon is Illuminated
Feb 25
Waning Crescent
Mar 1
New
Mar 8
First Quarter
Mar 16
Full
Mar 23
Last Quarter

Hourly Weather History & Observations

Time (CST) Temp. Windchill Dew Point Humidity Pressure Visibility Wind Dir Wind Speed Gust Speed Precip Events Conditions
12:14 AM -5.8 °F -26.8 °F -9.4 °F 84% 30.29 in 10.0 mi WNW 15.0 mph 19.6 mph N/A   Clear
12:35 AM -5.8 °F -25.2 °F -9.4 °F 84% 30.28 in 10.0 mi WNW 12.7 mph - N/A   Clear
12:55 AM -5.8 °F -24.4 °F -11.2 °F 77% 30.28 in 10.0 mi WNW 11.5 mph - N/A   Clear
1:14 AM -5.8 °F -24.4 °F -11.2 °F 77% 30.28 in 10.0 mi WNW 11.5 mph - N/A   Clear
1:35 AM -5.8 °F -24.4 °F -13.0 °F 71% 30.27 in 10.0 mi WNW 11.5 mph - N/A   Clear
1:55 AM -7.6 °F -25.7 °F -13.0 °F 77% 30.27 in 10.0 mi WNW 10.4 mph - N/A   Clear
2:14 AM -7.6 °F -24.6 °F -13.0 °F 77% 30.27 in 10.0 mi WNW 9.2 mph - N/A   Clear
2:35 AM -7.6 °F -25.7 °F -13.0 °F 77% 30.27 in 10.0 mi WNW 10.4 mph - N/A   Clear
2:55 AM -7.6 °F -24.6 °F -13.0 °F 77% 30.26 in 10.0 mi WNW 9.2 mph - N/A   Clear
3:14 AM -7.6 °F -24.6 °F -13.0 °F 77% 30.26 in 10.0 mi West 9.2 mph - N/A   Clear
3:35 AM -7.6 °F -24.6 °F -13.0 °F 77% 30.25 in 10.0 mi West 9.2 mph - N/A   Clear
3:55 AM -7.6 °F -24.6 °F -13.0 °F 77% 30.24 in 10.0 mi WNW 9.2 mph - N/A   Clear
4:14 AM -7.6 °F -22.1 °F -13.0 °F 77% 30.24 in 10.0 mi WNW 6.9 mph - N/A   Clear
4:35 AM -7.6 °F -23.4 °F -13.0 °F 77% 30.24 in 10.0 mi West 8.1 mph - N/A   Clear
4:55 AM -7.6 °F -23.4 °F -13.0 °F 77% 30.23 in 10.0 mi WNW 8.1 mph - N/A   Clear
5:15 AM -7.6 °F -23.4 °F -14.8 °F 71% 30.23 in 10.0 mi West 8.1 mph - N/A   Clear
5:35 AM -9.4 °F -25.6 °F -14.8 °F 77% 30.23 in 10.0 mi West 8.1 mph - N/A   Clear
5:54 AM -9.4 °F -26.8 °F -14.8 °F 77% 30.23 in 10.0 mi West 9.2 mph - N/A   Clear
6:15 AM -9.4 °F -26.8 °F -14.8 °F 77% 30.23 in 10.0 mi West 9.2 mph - N/A   Clear
6:34 AM -9.4 °F -25.6 °F -14.8 °F 77% 30.22 in 10.0 mi West 8.1 mph - N/A   Clear
6:55 AM -9.4 °F -27.9 °F -14.8 °F 77% 30.22 in 10.0 mi West 10.4 mph - N/A   Clear
7:15 AM -9.4 °F -26.8 °F -14.8 °F 77% 30.23 in 10.0 mi West 9.2 mph - N/A   Clear
7:34 AM -7.6 °F -25.7 °F -14.8 °F 71% 30.23 in 10.0 mi West 10.4 mph - N/A   Clear
7:55 AM -7.6 °F -24.6 °F -14.8 °F 71% 30.23 in 10.0 mi WNW 9.2 mph - N/A   Clear
8:15 AM -7.6 °F -26.6 °F -13.0 °F 77% 30.24 in 10.0 mi WNW 11.5 mph - N/A   Clear
8:34 AM -7.6 °F -27.5 °F -13.0 °F 77% 30.24 in 10.0 mi WNW 12.7 mph - N/A Snow Light Snow
8:55 AM -7.6 °F -27.5 °F -13.0 °F 77% 30.25 in 4.0 mi WNW 12.7 mph - N/A Snow Light Snow
9:15 AM -5.8 °F -26.8 °F -13.0 °F 71% 30.25 in 10.0 mi NW 15.0 mph - N/A Snow Light Snow
9:34 AM -7.6 °F -28.3 °F -13.0 °F 77% 30.27 in 4.0 mi NW 13.8 mph - N/A Snow Light Snow
9:55 AM -7.6 °F -29.8 °F -13.0 °F 77% 30.27 in 1.5 mi NW 16.1 mph - N/A Snow Light Snow
10:15 AM -7.6 °F -28.3 °F -13.0 °F 77% 30.28 in 10.0 mi NW 13.8 mph - N/A Snow Light Snow
10:35 AM -7.6 °F -29.8 °F -13.0 °F 77% 30.29 in 10.0 mi NW 16.1 mph 21.9 mph N/A   Clear
10:55 AM -7.6 °F -28.3 °F -13.0 °F 77% 30.29 in 10.0 mi NNW 13.8 mph 20.7 mph N/A   Clear
11:15 AM -5.8 °F -26.0 °F -13.0 °F 71% 30.30 in 10.0 mi NW 13.8 mph - N/A   Clear
11:35 AM -5.8 °F -26.8 °F -13.0 °F 71% 30.31 in 10.0 mi NNW 15.0 mph 20.7 mph N/A   Clear
11:55 AM -5.8 °F -26.0 °F -13.0 °F 71% 30.32 in 10.0 mi NNW 13.8 mph - N/A   Clear
12:15 PM -5.8 °F -28.8 °F -13.0 °F 71% 30.32 in 7.0 mi NW 18.4 mph - N/A   Scattered Clouds
12:35 PM -5.8 °F -26.8 °F -13.0 °F 71% 30.31 in 7.0 mi NW 15.0 mph - N/A   Scattered Clouds
12:55 PM -5.8 °F -29.4 °F -11.2 °F 77% 30.32 in 5.0 mi NW 19.6 mph - N/A   Haze
1:15 PM -4.0 °F -26.4 °F -9.4 °F 78% 30.32 in 7.0 mi NNW 18.4 mph 21.9 mph N/A   Scattered Clouds
1:35 PM -4.0 °F -26.4 °F -9.4 °F 78% 30.32 in 10.0 mi NW 18.4 mph 21.9 mph N/A   Clear
1:55 PM -4.0 °F -27.6 °F -9.4 °F 78% 30.32 in 10.0 mi NW 20.7 mph 26.5 mph N/A   Clear
2:15 PM -4.0 °F -27.0 °F -9.4 °F 78% 30.32 in 5.0 mi NW 19.6 mph 26.5 mph N/A   Haze
2:35 PM -4.0 °F -28.1 °F -9.4 °F 78% 30.32 in 7.0 mi NW 21.9 mph 26.5 mph N/A   Scattered Clouds
2:55 PM -4.0 °F -27.0 °F -9.4 °F 78% 30.33 in 7.0 mi NNW 19.6 mph 26.5 mph N/A   Scattered Clouds
3:15 PM -4.0 °F -28.1 °F -11.2 °F 71% 30.33 in 7.0 mi NNW 21.9 mph 27.6 mph N/A   Scattered Clouds
3:35 PM -4.0 °F -28.1 °F -9.4 °F 78% 30.34 in 3.0 mi NNW 21.9 mph 28.8 mph N/A   Haze
3:55 PM -4.0 °F -28.6 °F -11.2 °F 71% 30.34 in 4.0 mi NNW 23.0 mph 31.1 mph N/A   Haze
4:15 PM -4.0 °F -28.6 °F -13.0 °F 65% 30.34 in 10.0 mi NNW 23.0 mph 29.9 mph N/A   Scattered Clouds
4:35 PM -5.8 °F -29.4 °F -13.0 °F 71% 30.35 in 10.0 mi NNW 19.6 mph 26.5 mph N/A   Clear
4:55 PM -5.8 °F -28.2 °F -13.0 °F 71% 30.35 in 10.0 mi NNW 17.3 mph 24.2 mph N/A   Clear
5:15 PM -5.8 °F -29.4 °F -13.0 °F 71% 30.36 in 10.0 mi NNW 19.6 mph 24.2 mph N/A   Clear
5:35 PM -7.6 °F -29.8 °F -14.8 °F 71% 30.36 in 10.0 mi NNW 16.1 mph 20.7 mph N/A   Clear
5:55 PM -7.6 °F -27.5 °F -14.8 °F 71% 30.35 in 10.0 mi NNW 12.7 mph - N/A   Clear
6:15 PM -7.6 °F -26.6 °F -14.8 °F 71% 30.35 in 10.0 mi NNW 11.5 mph - N/A   Clear
6:35 PM -9.4 °F -27.9 °F -14.8 °F 77% 30.35 in 10.0 mi NW 10.4 mph - N/A   Clear
6:55 PM -9.4 °F -26.8 °F -14.8 °F 77% 30.35 in 10.0 mi NW 9.2 mph - N/A   Clear
7:15 PM -9.4 °F -25.6 °F -14.8 °F 77% 30.35 in 10.0 mi WNW 8.1 mph - N/A   Clear
7:35 PM -9.4 °F -26.8 °F -14.8 °F 77% 30.34 in 10.0 mi WNW 9.2 mph - N/A   Clear
7:55 PM -9.4 °F -26.8 °F -14.8 °F 77% 30.34 in 10.0 mi WNW 9.2 mph - N/A   Clear
8:15 PM -9.4 °F -26.8 °F -13.0 °F 84% 30.33 in 10.0 mi WNW 9.2 mph - N/A   Clear
8:35 PM -9.4 °F -25.6 °F -14.8 °F 77% 30.32 in 10.0 mi WNW 8.1 mph - N/A   Clear
8:55 PM -9.4 °F -24.3 °F -14.8 °F 77% 30.31 in 10.0 mi WNW 6.9 mph - N/A   Clear
9:15 PM -9.4 °F -24.3 °F -14.8 °F 77% 30.31 in 10.0 mi West 6.9 mph - N/A   Clear
9:35 PM -9.4 °F -22.7 °F -14.8 °F 77% 30.30 in 10.0 mi West 5.8 mph - N/A   Clear
9:54 PM -9.4 °F -22.7 °F -14.8 °F 77% 30.30 in 10.0 mi West 5.8 mph - N/A   Clear
10:15 PM -9.4 °F -24.3 °F -14.8 °F 77% 30.30 in 10.0 mi West 6.9 mph - N/A   Clear
10:35 PM -9.4 °F -22.7 °F -14.8 °F 77% 30.29 in 10.0 mi West 5.8 mph - N/A   Clear
10:55 PM -9.4 °F -25.6 °F -14.8 °F 77% 30.28 in 10.0 mi West 8.1 mph - N/A   Clear
11:15 PM -7.6 °F -26.6 °F -13.0 °F 77% 30.27 in 10.0 mi West 11.5 mph - N/A   Clear
11:35 PM -7.6 °F -25.7 °F -13.0 °F 77% 30.26 in 10.0 mi WNW 10.4 mph - N/A   Clear
11:55 PM -7.6 °F -26.6 °F -14.8 °F 71% 30.25 in 10.0 mi West 11.5 mph - N/A   Clear